Salt Lake City, UT

3:09 AM MDT on May 28, 2017 (GMT -0600)
Salt Lake City International

Weather History for KSLC - June, 2013

Change the Weather History Date:

Wednesday, June 26, 2013

  Actual Average Record
Temperature  
Mean Temperature 80 °F 74 °F  
Max Temperature 94 °F 87 °F 103 °F (1970)
Min Temperature 66 °F 60 °F 42 °F (1978)
Degree Days  
Heating Degree Days 0 0  
Month to date heating degree days 4 44  
Since 1 June heating degree days 4 44  
Since 1 July heating degree days 5460 5605  
Cooling Degree Days 15 9  
Month to date cooling degree days 230 148  
Year to date cooling degree days 300 198  
Since 1 June cooling degree days 230 148  
Growing Degree Days 30 (Base 50)    
Moisture  
Dew Point 49 °F    
Average Humidity 43    
Maximum Humidity 63    
Minimum Humidity 22    
Precipitation  
Precipitation 0.00 in 0.02 in 0.61 in (2014)
Month to date precipitation T 0.92  
Year to date precipitation 6.12 9.15  
Snow  
Snow 0.00 in 0.00 in - ()
Month to date snowfall 0.0 0.0  
Since 1 July snowfall 69.9 56.2  
Snow Depth 0.00 in    
Sea Level Pressure  
Sea Level Pressure 29.87 in    
Wind  
Wind Speed 6 mph (NNW)    
Max Wind Speed 16 mph    
Max Gust Speed 22 mph    
Visibility 10 miles    
Events      
T = Trace of Precipitation, MM = Missing Value Source: NWS Daily Summary

Daily Weather History Graph

Daily Weather History Graph

Search for Another Location

Airport or City:

Trip Planner

Search our weather history database for the weather conditions in past years. The results will help you decide how hot, cold, wet, or windy it might be!

Date:

Astronomy

Jun. 26, 2013 Rise Set
Actual Time 5:58 AM MDT 9:03 PM MDT
Civil Twilight 5:24 AM MDT 9:36 PM MDT
Nautical Twilight 4:42 AM MDT 10:19 PM MDT
Astronomical Twilight 3:51 AM MDT 11:09 PM MDT
Moon 11:27 PM MDT (6/26) 9:55 AM MDT (6/26)
Length of Visible Light 16h 12m
Length of Day
15h 05m
Waning Gibbous, 85% of the Moon is Illuminated
Jun 26
Waning Gibbous
Jun 29
Last Quarter
Jul 8
New
Jul 15
First Quarter
Jul 22
Full

Hourly Weather History & Observations

Time (MDT) Temp. Dew Point Humidity Pressure Visibility Wind Dir Wind Speed Gust Speed Precip Events Conditions
12:53 AM 73.9 °F 43.0 °F 33% 29.76 in 10.0 mi SSE 6.9 mph - N/A   Scattered Clouds
1:53 AM 72.0 °F 45.0 °F 38% 29.75 in 10.0 mi SSE 5.8 mph - N/A   Partly Cloudy
2:53 AM 70.0 °F 45.0 °F 41% 29.77 in 10.0 mi Calm Calm - N/A   Partly Cloudy
3:53 AM 71.1 °F 48.0 °F 44% 29.79 in 10.0 mi WNW 4.6 mph - N/A   Partly Cloudy
4:53 AM 70.0 °F 52.0 °F 53% 29.83 in 10.0 mi West 6.9 mph - N/A   Scattered Clouds
5:53 AM 66.9 °F 52.0 °F 59% 29.87 in 10.0 mi NE 3.5 mph - N/A   Scattered Clouds
6:53 AM 68.0 °F 55.0 °F 63% 29.90 in 10.0 mi West 3.5 mph - N/A   Scattered Clouds
7:53 AM 71.1 °F 53.1 °F 53% 29.92 in 10.0 mi WNW 4.6 mph - N/A   Scattered Clouds
8:53 AM 75.9 °F 53.1 °F 45% 29.93 in 10.0 mi Variable 3.5 mph - N/A   Scattered Clouds
9:53 AM 80.1 °F 52.0 °F 38% 29.94 in 10.0 mi Calm Calm - N/A   Scattered Clouds
10:53 AM 82.9 °F 50.0 °F 32% 29.93 in 10.0 mi Calm Calm - N/A   Scattered Clouds
11:53 AM 84.9 °F 50.0 °F 30% 29.93 in 10.0 mi Variable 3.5 mph - N/A   Scattered Clouds
12:53 PM 89.1 °F 50.0 °F 26% 29.91 in 10.0 mi North 5.8 mph - N/A   Partly Cloudy
1:53 PM 90.0 °F 48.9 °F 24% 29.91 in 10.0 mi NNW 9.2 mph - N/A   Partly Cloudy
2:53 PM 91.9 °F 48.9 °F 23% 29.89 in 10.0 mi NNW 8.1 mph - N/A   Partly Cloudy
3:53 PM 93.0 °F 48.9 °F 22% 29.88 in 10.0 mi NW 11.5 mph - N/A   Partly Cloudy
4:53 PM 93.9 °F 48.0 °F 21% 29.87 in 10.0 mi NNW 13.8 mph 20.7 mph N/A   Partly Cloudy
5:53 PM 93.9 °F 46.9 °F 20% 29.87 in 10.0 mi North 13.8 mph - N/A   Partly Cloudy
6:53 PM 93.9 °F 46.9 °F 20% 29.86 in 10.0 mi North 9.2 mph - N/A   Partly Cloudy
7:53 PM 93.0 °F 46.9 °F 20% 29.85 in 10.0 mi North 8.1 mph - N/A   Partly Cloudy
8:53 PM 89.1 °F 50.0 °F 26% 29.86 in 10.0 mi NNW 6.9 mph - N/A   Partly Cloudy
9:53 PM 84.0 °F 52.0 °F 33% 29.87 in 10.0 mi Calm Calm - N/A   Partly Cloudy
10:53 PM 81.0 °F 50.0 °F 34% 29.89 in 10.0 mi SE 3.5 mph - N/A   Clear
11:53 PM 79.0 °F 46.9 °F 32% 29.90 in 10.0 mi SSE 5.8 mph - N/A   Clear